EW5168 Weather Reports


Display with metric or nautical units.
time (UTC)temp
F
wind
direction
speed
MPH
gust
MPH
rain 1hr
in
rain 24hr
in
rain mn
in
humidity
%
barometer
mb
20260906191540 97 221 3.0 11.0 0.00 0.00 0.00 32 1012.4
20260906191536 96 94 2.0 11.0 0.00 0.00 0.00 33 1012.3
20260906190536 95 161 4.0 10.0 0.00 0.00 0.00 33 1012.3
20260906190033 96 209 3.0 10.0 0.00 0.00 0.00 33 1012.4
20260906185532 96 164 1.0 9.0 0.00 0.00 0.00 32 1012.5
20260906185032 97 270 2.0 9.0 0.00 0.00 0.00 32 1012.5
20260906184532 97 155 3.0 11.0 0.00 0.00 0.00 32 1012.6
20260906184033 97 225 4.0 11.0 0.00 0.00 0.00 32 1012.7
20260906183533 97 217 3.0 9.0 0.00 0.00 0.00 32 1012.7
20260906183032 96 187 3.0 9.0 0.00 0.00 0.00 32 1012.7
20260906182532 97 206 2.0 8.0 0.00 0.00 0.00 31 1012.8
20260906182033 98 206 2.0 9.0 0.00 0.00 0.00 31 1012.8
20260906181532 97 261 2.0 9.0 0.00 0.00 0.00 31 1012.8
20260906181033 97 109 1.0 7.0 0.00 0.00 0.00 30 1012.8
20260906180535 96 141 1.0 7.0 0.00 0.00 0.00 30 1013.0
20260906180531 96 89 2.0 9.0 0.00 0.00 0.00 30 1013.1
20260906175531 96 91 3.0 9.0 0.00 0.00 0.00 30 1013.2
20260906175030 95 256 2.0 9.0 0.00 0.00 0.00 31 1013.2
20260906174532 95 159 3.0 9.0 0.00 0.00 0.00 31 1013.4
20260906174528 94 74 2.0 5.0 0.00 0.00 0.00 31 1013.4
20260906173528 96 226 3.0 9.0 0.00 0.00 0.00 30 1013.6
20260906173027 96 186 3.0 10.0 0.00 0.00 0.00 29 1013.6
20260906172527 95 239 3.0 10.0 0.00 0.00 0.00 29 1013.7
20260906172026 95 72 3.0 7.0 0.00 0.00 0.00 28 1013.9
20260906171524 94 126 3.0 7.0 0.00 0.00 0.00 28 1013.9
20260906171024 94 103 2.0 7.0 0.00 0.00 0.00 27 1014.1
20260906170525 94 95 2.0 7.0 0.00 0.00 0.00 27 1014.1
20260906170024 93 86 2.0 8.0 0.00 0.00 0.00 26 1014.2
20260906165526 93 163 2.0 8.0 0.00 0.00 0.00 25 1014.2
20260906165028 92 76 2.0 6.0 0.00 0.00 0.00 22 1014.2
20260906165024 93 173 2.0 6.0 0.00 0.00 0.00 23 1014.2
20260906164024 92 88 1.0 6.0 0.00 0.00 0.00 20 1014.3
20260906163528 92 86 1.0 7.0 0.00 0.00 0.00 18 1014.4
20260906163524 92 80 1.0 7.0 0.00 0.00 0.00 20 1014.4
20260906163127 91 346 2.0 7.0 0.00 0.00 0.00 17 1014.4
20260906162024 91 215 2.0 6.0 0.00 0.00 0.00 15 1014.5
20260906162020 91 103 2.0 7.0 0.00 0.00 0.00 16 1014.4
20260906161016 91 86 1.0 4.0 0.00 0.00 0.00 13 1014.5
20260906160516 91 130 1.0 5.0 0.00 0.00 0.00 11 1014.5
20260906160014 90 92 1.0 5.0 0.00 0.00 0.00 8 1014.5
20260906155520 89 99 2.0 6.0 0.00 0.00 0.00 3 1014.4
20260906155515 90 215 2.0 6.0 0.00 0.00 0.00 7 1014.5
20260906154514 89 115 2.0 6.0 0.00 0.00 0.00 1 1014.4
20260906154017 88 64 1.0 5.0 0.00 0.00 0.00 1 1014.4
20260906153511 88 132 1.0 5.0 0.00 0.00 0.00 1 1014.3
20260906153010 88 145 1.0 4.0 0.00 0.00 0.00 1 1014.3
20260906152512 87 172 2.0 6.0 0.00 0.00 0.00 1 1014.3
20260906152508 87 176 2.0 6.0 0.00 0.00 0.00 1 1014.3
20260906151508 87 175 2.0 9.0 0.00 0.00 0.00 1 1014.4
20260906151008 87 153 2.0 9.0 0.00 0.00 0.00 1 1014.4
20260906150510 86 84 1.0 4.0 0.00 0.00 0.00 1 1014.3
20260906150506 85 88 1.0 4.0 0.00 0.00 0.00 1 1014.2
20260906150110 86 172 1.0 4.0 0.00 0.00 0.00 1 1014.2
20260906145004 85 118 2.0 4.0 0.00 0.00 0.00 1 1014.2
20260906144502 84 80 2.0 4.0 0.00 0.00 0.00 1 1014.1
20260906144002 84 80 1.0 4.0 0.00 0.00 0.00 1 1014.1
20260906143503 83 76 1.0 4.0 0.00 0.00 0.00 1 1014.1
20260906143000 83 193 1.0 4.0 0.00 0.00 0.00 1 1014.1
20260906142504 82 81 1.0 4.0 0.00 0.00 0.00 1 1014.1
20260906142500 82 236 2.0 4.0 0.00 0.00 0.00 1 1014.1
20260906141500 81 105 0.0 3.0 0.00 0.00 0.00 1 1014.1
20260906140959 80 105 0.0 3.0 0.00 0.00 0.00 1 1014.1
20260906140502 79 105 1.0 3.0 0.00 0.00 0.00 1 1014.1
20260906140458 80 105 0.0 2.0 0.00 0.00 0.00 1 1014.1
20260906135458 78 105 1.0 3.0 0.00 0.00 0.00 1 1014.1
20260906134958 78 105 1.0 3.0 0.00 0.00 0.00 1 1014.1
20260906134457 78 114 1.0 2.0 0.00 0.00 0.00 1 1014.1
20260906134002 77 114 1.0 2.0 0.00 0.00 0.00 1 1014.1
20260906133958 77 114 1.0 2.0 0.00 0.00 0.00 1 1014.1
20260906132958 77 169 0.0 2.0 0.00 0.00 0.00 1 1014.1
20260906132459 77 169 0.0 2.0 0.00 0.00 0.00 1 1014.1
20260906131957 77 169 1.0 2.0 0.00 0.00 0.00 1 1014.1
20260906131458 76 169 1.0 2.0 0.00 0.00 0.00 1 1014.1
20260906130958 76 169 0.0 2.0 0.00 0.00 0.00 1 1014.0
20260906130458 76 169 0.0 2.0 0.00 0.00 0.00 1 1014.0
20260906125956 76 169 0.0 1.0 0.00 0.00 0.00 1 1014.0
20260906125457 76 169 0.0 2.0 0.00 0.00 0.00 1 1013.7
20260906125453 76 169 0.0 2.0 0.00 0.00 0.00 1 1013.9
20260906124450 76 169 0.0 0.0 0.00 0.00 0.00 1 1013.7
20260906123952 76 169 0.0 0.0 0.00 0.00 0.00 1 1013.6
20260906123948 76 169 0.0 0.0 0.00 0.00 0.00 1 1013.7
20260906122948 76 169 0.0 0.0 0.00 0.00 0.00 1 1013.5
20260906122944 76 169 0.0 0.0 0.00 0.00 0.00 1 1013.5
20260906121944 76 169 0.0 0.0 0.00 0.00 0.00 1 1013.4
20260906121940 76 169 0.0 0.0 0.00 0.00 0.00 1 1013.2
20260906121543 76 169 0.0 0.0 0.00 0.00 0.00 1 1013.1
20260906120435 76 170 0.0 0.0 0.00 0.00 0.00 1 1013.0
20260906115934 76 170 0.0 0.0 0.00 0.00 0.00 1 1012.9
20260906115432 76 170 0.0 0.0 0.00 0.00 0.00 1 1012.9
20260906114932 76 170 0.0 0.0 0.00 0.00 0.00 1 1012.9
20260906114432 76 170 0.0 0.0 0.00 0.00 0.00 1 1012.8
20260906113934 76 170 0.0 0.0 0.00 0.00 0.00 1 1012.7
20260906113930 76 170 0.0 0.0 0.00 0.00 0.00 1 1012.6
20260906112930 76 170 0.0 0.0 0.00 0.00 0.00 1 1012.7
20260906112435 76 170 0.0 0.0 0.00 0.00 0.00 1 1012.6
20260906112431 76 170 0.0 0.0 0.00 0.00 0.00 1 1012.6
20260906112036 76 170 0.0 0.0 0.00 0.00 0.00 1 1012.5
20260906110930 76 170 0.0 0.0 0.00 0.00 0.00 1 1012.5
20260906110429 76 170 0.0 0.0 0.00 0.00 0.00 1 1012.4
20260906105929 76 170 0.0 0.0 0.00 0.00 0.00 1 1012.3
20260906105430 77 170 0.0 0.0 0.00 0.00 0.00 1 1012.3
20260906104930 77 170 0.0 0.0 0.00 0.00 0.00 1 1012.2
20260906104434 77 170 0.0 0.0 0.00 0.00 0.00 1 1012.1
20260906104430 77 170 0.0 0.0 0.00 0.00 0.00 1 1012.2
20260906103428 77 170 0.0 0.0 0.00 0.00 0.00 1 1012.1
20260906102932 77 170 0.0 0.0 0.00 0.00 0.00 1 1012.2
20260906102928 77 170 0.0 0.0 0.00 0.00 0.00 1 1012.2
20260906101925 77 170 0.0 0.0 0.00 0.00 0.00 1 1012.1
20260906101427 77 170 0.0 1.0 0.00 0.00 0.00 1 1012.1
20260906101423 77 170 0.0 1.0 0.00 0.00 0.00 1 1012.1
20260906100422 77 170 0.0 1.0 0.00 0.00 0.00 1 1012.1
20260906095920 77 170 0.0 1.0 0.00 0.00 0.00 1 1012.0
20260906095424 77 170 1.0 3.0 0.00 0.00 0.00 1 1012.1
20260906095419 77 169 0.0 2.0 0.00 0.00 0.00 1 1012.1
20260906095025 77 157 1.0 3.0 0.00 0.00 0.00 1 1012.0
20260906093923 78 171 1.0 4.0 0.00 0.00 0.00 1 1011.8
20260906093919 78 183 1.0 4.0 0.00 0.00 0.00 1 1011.9
20260906092919 78 156 1.0 3.0 0.00 0.00 0.00 1 1011.8
20260906092419 78 156 1.0 3.0 0.00 0.00 0.00 1 1011.8
20260906091923 78 163 1.0 4.0 0.00 0.00 0.00 1 1011.8
20260906091919 78 180 1.0 3.0 0.00 0.00 0.00 1 1011.8
20260906090919 78 169 1.0 4.0 0.00 0.00 0.00 1 1011.7
20260906090420 78 171 1.0 2.0 0.00 0.00 0.00 1 1011.7
20260906085919 78 171 1.0 2.0 0.00 0.00 0.00 1 1011.8
20260906085419 78 171 0.0 2.0 0.00 0.00 0.00 1 1011.8
20260906084918 78 149 0.0 2.0 0.00 0.00 0.00 1 1011.8
20260906084419 78 149 0.0 2.0 0.00 0.00 0.00 1 1011.8
20260906083921 78 149 0.0 2.0 0.00 0.00 0.00 1 1011.8
20260906083917 78 149 0.0 2.0 0.00 0.00 0.00 1 1011.8
20260906082914 78 149 1.0 2.0 0.00 0.00 0.00 1 1011.7
20260906082415 78 149 0.0 2.0 0.00 0.00 0.00 1 1011.8
20260906081915 78 162 0.0 2.0 0.00 0.00 0.00 1 1011.9
20260906081415 79 162 0.0 2.0 0.00 0.00 0.00 1 1011.9
20260906080915 79 162 0.0 2.0 0.00 0.00 0.00 1 1012.0
20260906080413 79 192 1.0 2.0 0.00 0.00 0.00 1 1012.1
20260906075911 79 192 0.0 2.0 0.00 0.00 0.00 1 1012.1
20260906075411 79 153 0.0 2.0 0.00 0.00 0.00 1 1012.1
20260906074911 79 153 0.0 2.0 0.00 0.00 0.00 1 1012.1
20260906074411 79 153 0.0 1.0 0.00 0.00 0.00 1 1012.2
20260906073909 80 153 0.0 1.0 0.00 0.00 0.00 1 1012.3
20260906073406 80 153 0.0 2.0 0.00 0.00 0.00 1 1012.4
20260906072909 80 168 0.0 2.0 0.00 0.00 0.00 1 1012.3
20260906072905 80 153 1.0 2.0 0.00 0.00 0.00 1 1012.4
20260906071906 80 148 1.0 2.0 0.00 0.00 0.00 1 1012.5
20260906071411 80 190 1.0 5.0 0.00 0.00 0.00 1 1012.5
20260906071407 80 190 1.0 5.0 0.00 0.00 0.00 1 1012.5
20260906070405 80 169 1.0 4.0 0.00 0.00 0.00 1 1012.5
20260906065906 80 151 1.0 2.0 0.00 0.00 0.00 1 1012.6
20260906065403 80 161 1.0 2.0 0.00 0.00 0.00 1 1012.7
20260906064903 80 162 1.0 2.0 0.00 0.00 0.00 1 1012.7
20260906064401 80 172 0.0 3.0 0.00 0.00 0.00 1 1012.8
20260906063901 81 167 0.0 3.0 0.00 0.00 0.00 1 1012.8
20260906063402 81 165 0.0 2.0 0.00 0.00 0.00 1 1012.8
20260906062901 81 146 0.0 2.0 0.00 0.00 0.00 1 1012.9
20260906062359 81 146 0.0 1.0 0.00 0.00 0.00 1 1012.8
20260906061857 81 146 1.0 2.0 0.00 0.00 0.00 1 1012.8
20260906061401 81 171 0.0 3.0 0.00 0.00 0.00 1 1012.9
20260906061357 81 146 1.0 2.0 0.00 0.00 0.00 1 1012.8
20260906060357 81 171 1.0 5.0 0.00 0.00 0.00 1 1013.0
20260906055857 82 171 1.0 5.0 0.00 0.00 0.00 1 1012.8
20260906055357 82 184 2.0 5.0 0.00 0.00 0.00 1 1012.8
20260906054857 82 208 2.0 6.0 0.00 0.00 0.00 1 1012.7
20260906054354 82 179 1.0 6.0 0.00 0.00 0.00 1 1012.8
20260906053855 82 179 1.0 5.0 0.00 0.00 0.00 1 1012.8
20260906053359 82 178 2.0 6.0 0.00 0.00 0.00 1 1012.9
20260906053355 82 190 2.0 5.0 0.00 0.00 0.00 1 1012.8
20260906052353 82 180 2.0 6.0 0.00 0.00 0.00 1 1012.8
20260906051853 82 194 1.0 5.0 0.00 0.00 0.00 1 1012.7
20260906051357 83 153 2.0 5.0 0.00 0.00 0.00 1 1012.9
20260906051353 82 210 2.0 5.0 0.00 0.00 0.00 1 1012.8
20260906050358 83 162 2.0 8.0 0.00 0.00 0.00 1 1013.0
20260906050353 83 155 2.0 8.0 0.00 0.00 0.00 1 1013.0
20260906045356 83 209 1.0 6.0 0.00 0.00 0.00 1 1013.0
20260906045352 83 159 2.0 6.0 0.00 0.00 0.00 1 1013.0
20260906044348 83 136 1.0 6.0 0.00 0.00 0.00 1 1013.0
20260906043848 83 153 1.0 6.0 0.00 0.00 0.00 1 1012.9
20260906043348 83 172 2.0 6.0 0.00 0.00 0.00 1 1012.7
20260906042848 83 104 2.0 6.0 0.00 0.00 0.00 1 1012.7
20260906042352 83 144 3.0 10.0 0.00 0.00 0.00 1 1012.7
20260906042348 83 172 3.0 7.0 0.00 0.00 0.00 1 1012.6
20260906041346 83 154 3.0 10.0 0.00 0.00 0.00 1 1012.8
20260906040848 84 153 2.0 8.0 0.00 0.00 0.00 1 1013.0
20260906040844 84 202 3.0 8.0 0.00 0.00 0.00 1 1012.9
20260906035844 84 207 3.0 8.0 0.00 0.00 0.00 1 1013.0
20260906035344 84 155 2.0 8.0 0.00 0.00 0.00 1 1012.9
20260906034842 84 163 2.0 6.0 0.00 0.00 0.00 1 1012.8
20260906034342 85 146 2.0 6.0 0.00 0.00 0.00 1 1012.9
20260906033846 85 151 2.0 7.0 0.00 0.00 0.00 1 1012.8
20260906033842 85 155 2.0 7.0 0.00 0.00 0.00 1 1012.9
20260906032840 85 171 2.0 6.0 0.00 0.00 0.00 1 1012.7
20260906032342 85 190 2.0 7.0 0.00 0.00 0.00 1 1012.7
20260906032338 85 201 2.0 7.0 0.00 0.00 0.00 1 1012.7
20260906031336 86 168 2.0 6.0 0.00 0.00 0.00 2 1012.7
20260906030840 86 96 1.0 4.0 0.00 0.00 0.00 8 1012.8
20260906030836 86 160 2.0 6.0 0.00 0.00 0.00 6 1012.8
20260906025840 87 134 1.0 5.0 0.00 0.00 0.00 14 1012.5
20260906025836 87 103 1.0 5.0 0.00 0.00 0.00 11 1012.6
20260906024836 87 150 1.0 5.0 0.00 0.00 0.00 18 1012.4
20260906024336 87 164 1.0 5.0 0.00 0.00 0.00 21 1012.3
20260906023835 87 190 1.0 6.0 0.00 0.00 0.00 25 1012.2
20260906023338 88 161 1.0 4.0 0.00 0.00 0.00 30 1011.9
20260906023334 88 154 1.0 6.0 0.00 0.00 0.00 28 1012.1
20260906022332 88 167 2.0 4.0 0.00 0.00 0.00 31 1011.9
20260906021832 88 155 1.0 5.0 0.00 0.00 0.00 33 1011.9
20260906021334 89 78 1.0 5.0 0.00 0.00 0.00 34 1011.8
20260906020836 89 239 2.0 7.0 0.00 0.00 0.00 35 1011.8
20260906020832 89 144 2.0 5.0 0.00 0.00 0.00 34 1011.7
20260906015829 89 126 1.0 7.0 0.00 0.00 0.00 36 1011.7
20260906015330 89 92 2.0 6.0 0.00 0.00 0.00 36 1011.6
20260906014834 90 113 2.0 7.0 0.00 0.00 0.00 36 1011.5
20260906014830 90 109 2.0 7.0 0.00 0.00 0.00 36 1011.6
20260906013830 90 98 2.0 6.0 0.00 0.00 0.00 36 1011.4
20260906013330 90 79 2.0 9.0 0.00 0.00 0.00 36 1011.4
20260906012830 90 107 2.0 9.0 0.00 0.00 0.00 36 1011.4
20260906012334 91 153 2.0 9.0 0.00 0.00 0.00 36 1011.2
20260906012330 91 166 2.0 9.0 0.00 0.00 0.00 36 1011.3
20260906011334 91 123 2.0 7.0 0.00 0.00 0.00 36 1011.0
20260906011330 91 90 2.0 7.0 0.00 0.00 0.00 36 1011.0
20260906010330 92 100 2.0 7.0 0.00 0.00 0.00 36 1010.9
20260906005830 92 86 2.0 6.0 0.00 0.00 0.00 36 1010.9
20260906005334 92 142 2.0 10.0 0.00 0.00 0.00 36 1010.9
20260906005329 92 76 2.0 10.0 0.00 0.00 0.00 36 1010.9
20260906004329 92 167 2.0 4.0 0.00 0.00 0.00 36 1010.9
20260906003828 93 112 2.0 8.0 0.00 0.00 0.00 36 1010.9
20260906003324 93 95 3.0 8.0 0.00 0.00 0.00 37 1010.8
20260906002821 93 88 3.0 7.0 0.00 0.00 0.00 37 1010.9
20260906002319 93 58 3.0 7.0 0.00 0.00 0.00 37 1010.8
20260906001820 94 130 3.0 9.0 0.00 0.00 0.00 37 1010.8
20260906001320 94 155 3.0 9.0 0.00 0.00 0.00 38 1010.8
20260906000820 94 94 3.0 9.0 0.00 0.00 0.00 38 1010.7
20260906000319 94 92 3.0 8.0 0.00 0.00 0.00 38 1010.7
20260905235819 95 180 3.0 7.0 0.00 0.00 0.00 38 1010.7
20260905235319 96 183 3.0 7.0 0.00 0.00 0.00 38 1010.6
20260905234818 96 5 3.0 10.0 0.00 0.00 0.00 37 1010.6
20260905234318 97 118 3.0 10.0 0.00 0.00 0.00 37 1010.5
20260905233818 97 99 3.0 8.0 0.00 0.00 0.00 37 1010.5
20260905233318 97 87 2.0 6.0 0.00 0.00 0.00 36 1010.4
20260905232820 97 161 1.0 5.0 0.00 0.00 0.00 35 1010.4
20260905232816 97 122 1.0 5.0 0.00 0.00 0.00 35 1010.3
20260905231816 97 86 2.0 5.0 0.00 0.00 0.00 35 1010.4
20260905231315 97 185 1.0 5.0 0.00 0.00 0.00 36 1010.6
20260905230816 96 88 2.0 7.0 0.00 0.00 0.00 36 1010.5
20260905230315 96 172 2.0 7.0 0.00 0.00 0.00 36 1010.4
20260905225813 97 86 2.0 8.0 0.00 0.00 0.00 36 1010.5
20260905225314 97 98 3.0 8.0 0.00 0.00 0.00 36 1010.5
20260905224815 97 104 2.0 4.0 0.00 0.00 0.00 36 1010.5
20260905224311 97 83 1.0 3.0 0.00 0.00 0.00 35 1010.4
20260905223811 97 83 2.0 5.0 0.00 0.00 0.00 35 1010.4
20260905223311 97 79 2.0 5.0 0.00 0.00 0.00 35 1010.4
20260905222812 98 163 2.0 7.0 0.00 0.00 0.00 34 1010.4
20260905222312 98 80 3.0 7.0 0.00 0.00 0.00 34 1010.4
20260905221811 99 198 3.0 7.0 0.00 0.00 0.00 34 1010.4
20260905221309 99 79 2.0 7.0 0.00 0.00 0.00 34 1010.3
20260905220809 99 70 2.0 7.0 0.00 0.00 0.00 34 1010.2
20260905220308 99 105 2.0 6.0 0.00 0.00 0.00 34 1010.2
20260905215807 99 200 1.0 6.0 0.00 0.00 0.00 33 1010.3
20260905215306 99 189 2.0 6.0 0.00 0.00 0.00 33 1010.4
20260905214809 99 148 1.0 7.0 0.00 0.00 0.00 34 1010.5
20260905214805 99 92 2.0 6.0 0.00 0.00 0.00 33 1010.4
20260905213803 99 229 2.0 8.0 0.00 0.00 0.00 33 1010.5
20260905213302 98 182 1.0 8.0 0.00 0.00 0.00 33 1010.6
20260905212802 98 69 1.0 5.0 0.00 0.00 0.00 33 1010.7
20260905212301 98 127 1.0 5.0 0.00 0.00 0.00 34 1010.8
20260905211801 98 102 1.0 6.0 0.00 0.00 0.00 34 1010.8
20260905211301 97 334 2.0 11.0 0.00 0.00 0.00 34 1010.9
20260905210808 98 83 2.0 5.0 0.00 0.00 0.00 34 1011.1
20260905210804 97 195 2.0 11.0 0.00 0.00 0.00 34 1011.0
20260905205801 98 84 2.0 7.0 0.00 0.00 0.00 34 1011.1
20260905205301 98 94 1.0 7.0 0.00 0.00 0.00 34 1011.2
20260905204759 97 255 1.0 4.0 0.00 0.00 0.00 34 1011.3
20260905204302 98 178 2.0 5.0 0.00 0.00 0.00 34 1011.3
20260905204258 98 157 2.0 5.0 0.00 0.00 0.00 33 1011.4
20260905203257 99 84 2.0 4.0 0.00 0.00 0.00 33 1011.5
20260905202757 100 79 2.0 3.0 0.00 0.00 0.00 32 1011.5
20260905202258 100 146 2.0 6.0 0.00 0.00 0.00 32 1011.5
20260905201756 99 259 2.0 6.0 0.00 0.00 0.00 33 1011.6
20260905201255 99 165 3.0 12.0 0.00 0.00 0.00 32 1011.7
20260905200755 99 90 3.0 12.0 0.00 0.00 0.00 32 1011.7
20260905200255 99 221 2.0 8.0 0.00 0.00 0.00 32 1011.8
20260905195755 98 167 2.0 8.0 0.00 0.00 0.00 32 1011.9
20260905195259 96 175 1.0 6.0 0.00 0.00 0.00 33 1012.0
20260905195255 97 47 1.0 6.0 0.00 0.00 0.00 32 1011.9
20260905194255 96 103 2.0 8.0 0.00 0.00 0.00 33 1012.1
20260905193759 97 102 2.0 7.0 0.00 0.00 0.00 32 1012.2
20260905193755 97 146 2.0 8.0 0.00 0.00 0.00 32 1012.1
20260905192756 96 344 1.0 7.0 0.00 0.00 0.00 32 1012.3
20260905192257 96 166 2.0 7.0 0.00 0.00 0.00 32 1012.5
20260905192253 96 159 1.0 5.0 0.00 0.00 0.00 32 1012.4